Eschehofs Impression

ei vielä mainittavampia saavutuksia
Skp, rotu ori, trakehner
Väri, säkä musta, 164 cm
Syntynyt, ikä 08.05.2014 Saksassa, 5-vuotias
Painotus estepainotteinen
Koulutus Helppo A / 160 cm
Kasvattaja Arnika
Omistaja Arnika VRL-01371

Luonnekuvaus

Tulossa.

ISÄLINJA: Alté (3)
EMÄLINJA: Ebenwind (2)

Sukutaulu

i. Ambrose LUX VH06-021-5776 trak, 167 cm, mkm ii. Black River's Redfox trak, 167 cm, mkm ERJ-III iii. Alté
iie. Eritrea
ie. Zelda Ion trak, 162 cm, rt VIP MVA Fn, KTK-II iei. Zeroboik
iee. Adelice
e. Ivory Nore VH06-021-9593 trak, 163 cm, rn ei. Chalyén trak, 170 cm, rn KRJ-II, YLA2 eii. Cantur EVM
eie. Marycas EVM
ee. Ebenwind trak, 159 cm eei. Bernan EVM
eee. Ebella EVM

Näytä/piilota sukuselvitys

Isä Ambrose LUX

ii. Black River's Redfox

iii. Alté

iie. Eritrea

ie. Zelda Ion

iei. Zeroboik

iee. Adelice

Emä Ivory Nore

ei. Chalyén

eii. Cantur

eie. Marycas

ee. Ebenwind

eei. Bernan

eee. Ebella


Jälkeläiset

# Jälkeläinen Syntynyt Meriitit Emä
001. rotu-o./t. --- 00.00.0000 ei meriittejä ---

Periyttäminen

HUOM! Periytymisjärjestelmää ollaan uudistamassa, tähän on merkitty järjestelmän aiemman version (2.0) mukaiset tiedot lyhyesti muistiin. Uuden systeemin mukainen taulukko päivitetään tähän aikanaan.

Genotyyppi: Ee/aa
Rohkeus: Taso 4: normaali (50,61%) Periyttää ominaisuutta normaalisti.
Kuuliaisuus: Taso 3: melko hankalasti käsiteltävä (33,9%) Periyttää ominaisuutta normaalisti.
Temperamentti: Taso 6: temperamenttinen (77,5%) Periyttää ominaisuutta vahvasti.
Herkkyys: Taso 6: herkkä (77%) Periyttää ominaisuutta normaalisti.
Älykkyys: Taso 4: normaali (54,73%) Periyttää ominaisuutta normaalisti.
Nopeus: Taso 5: hieman normaalia parempi (57,56%) Periyttää ominaisuutta normaalisti.
Kestävyys: Taso 4: normaali (52,7%) Periyttää ominaisuutta normaalisti.
Hyppykapasiteetti: Taso 7: selvästi normaalia parempi (88,05%) Periyttää ominaisuutta normaalisti.
Hyppytekniikka: Taso 6: normaalia parempi (76,74%) Periyttää ominaisuutta normaalisti.
Ketteryys: Taso 6: normaalia parempi (85,17%) Periyttää ominaisuutta normaalisti.
Liikkeet: Taso 6: normaalia parempi (77,5%) Periyttää ominaisuutta normaalisti.
Käynti: Taso 5: hieman normaalia parempi (60,4%) Periyttää ominaisuutta normaalisti.
Ravi: Taso 5: hieman normaalia parempi (69,5%) Periyttää ominaisuutta normaalisti.
Laukka: Taso 6: normaalia parempi (74,82%) Periyttää ominaisuutta normaalisti.

Meriitit ja saavutukset

Tällä hevosella ei toistaiseksi ole mainittavia saavutuksia.


Kisakalenteri (vain sijoitukset)

Esteratsastuskisat (78 sijoitusta, joista 17 voittoja ja 00 Cup-sijoituksia)
001. ERJ 11.02.16 Kilpailukeskus Ginger 160 cm 4/30
002. ERJ 12.02.16 Kilpailukeskus Ginger 160 cm 1/30
003. ERJ 18.02.16 Kilpailukeskus Ginger 160 cm 5/30
004. ERJ 19.02.16 Kilpailukeskus Ginger 160 cm 5/30
005. ERJ 22.02.16 Kilpailukeskus Ginger 160 cm 5/30
006. ERJ 28.02.16 Kilpailukeskus Ginger 160 cm 5/30
007. ERJ 17.02.16 Shadow 160 cm 6/39
008. ERJ 15.02.16 Petäjävaara 160 cm 4/25
009. ERJ 08.03.16 Teufel Warmbloods 160 cm 1/27
010. ERJ 08.03.16 Teufel Warmbloods 160 cm 5/27
011. ERJ 23.02.16 Filmür 160 cm 2/27
012. ERJ 23.02.16 Filmür 160 cm 4/27
013. ERJ 2402.16 Filmür 160 cm 1/27
014. ERJ 05.03.16 Filmür 160 cm 3/27
015. ERJ 08.03.16 Filmür 160 cm 3/27
016. ERJ 12.03.16 Filmür 160 cm 1/27
017. ERJ 14.03.16 Filmür 160 cm 5/27
018. ERJ 17.03.16 Filmür 160 cm 2/27
019. ERJ 23.03.16 Filmür 160 cm 5/27
020. ERJ 23.03.16 Filmür 160 cm 3/27
021. ERJ 24.03.16 Filmür 160 cm 1/27
022. ERJ 25.03.16 Filmür 160 cm 1/27
023. ERJ 28.03.16 Filmür 160 cm 3/27
024. ERJ 29.03.16 Filmür 160 cm 5/27
025. ERJ 04.04.16 Whitehall 160 cm 5/26
026. ERJ 05.04.16 Whitehall 160 cm 1/26
027. ERJ 05.04.16 Whitehall 160 cm 2/26
028. ERJ 01.04.16 Satulinna 160 cm 1/30
029. ERJ 06.04.16 Satulinna 160 cm 1/30
030. ERJ 07.04.16 Satulinna 160 cm 1/30
031. ERJ 12.04.16 Satulinna 160 cm 1/30
032. ERJ 15.04.16 Satulinna 160 cm 4/30
033. ERJ 18.04.16 Satulinna 160 cm 3/30
034. ERJ 07.04.16 Zelos 160 cm 1/25
035. ERJ 13.04.16 Filmür 160 cm 2/27
036. ERJ 15.04.16 Filmür 160 cm 5/27
037. ERJ 17.04.16 Filmür 160 cm 4/27
038. ERJ 18.04.16 Filmür 160 cm 4/27
039. ERJ 20.04.16 Filmür 160 cm 3/27
040. ERJ 20.04.16 Filmür 160 cm 5/27
041. ERJ 21.04.16 Filmür 160 cm 5/27
042. ERJ 24.04.16 Filmür 160 cm 4/27
043. ERJ 01.05.16 Filmür 160 cm 2/27
044. ERJ 04.05.16 Filmür 160 cm 5/27
045. ERJ 09.05.16 Filmür 160 cm 2/27
046. ERJ 10.05.16 Filmür 160 cm 5/27
047. ERJ 13.05.16 Filmür 160 cm 2/27
048. ERJ 13.05.16 Filmür 160 cm 3/27
049. ERJ 15.05.16 Filmür 160 cm 1/27
050. ERJ 15.05.16 Filmür 160 cm 3/27
051. ERJ 16.05.16 Filmür 160 cm 4/27
052. ERJ 21.05.16 Filmür 160 cm 2/27
053. ERJ 21.05.16 Filmür 160 cm 3/27
054. ERJ 22.05.16 Filmür 160 cm 4/27
055. ERJ 24.05.16 Filmür 160 cm 1/27
056. ERJ 26.05.16 Filmür 160 cm 1/27
057. ERJ 27.05.16 Filmür 160 cm 5/27
058. ERJ 29.05.16 Filmür 160 cm 2/27
059. ERJ 29.05.16 Filmür 160 cm 5/27
060. ERJ 30.05.16 Filmür 160 cm 1/27
061. ERJ 25.04.16 Filmür 160 cm 2/28
062. ERJ 27.04.16 Filmür 160 cm 5/28
063. ERJ 30.04.16 Filmür 160 cm 5/28
064. ERJ 30.04.16 Filmür 160 cm 5/28
065. ERJ 09.05.16 Filmür 160 cm 3/28
066. ERJ 12.05.16 Filmür 160 cm 2/28
067. ERJ 15.05.16 Filmür 160 cm 3/28
068. ERJ 17.05.16 Filmür 160 cm 3/28
069. ERJ 19.05.16 Filmür 160 cm 5/28
070. ERJ 19.05.16 Filmür 160 cm 1/28
071. ERJ 20.05.16 Filmür 160 cm 5/28
072. ERJ 21.05.16 Filmür 160 cm 2/28
073. ERJ 22.05.16 Filmür 160 cm 2/28
074. ERJ 26.05.16 Filmür 160 cm 4/28
075. ERJ 26.05.16 Filmür 160 cm 2/28
076. ERJ 29.05.16 Filmür 160 cm 5/28
077. ERJ 06.04.16 Whitehall 160 cm 4/26
078. ERJ 10.04.16 Whitehall 160 cm 2/26

Päiväkirja ja kuulumiset

Ei vielä merkintöjä.

Kuvagalleria

Tällä hevosella ei toistaiseksi ole muita kuvia.